Location: Chippewa Lake
(41.0698°N, 81.9010°W)
Time: 21:52:54
(UTC+00:00)

CZ-2C R/B - Pass Details

Date: 09 May 2021
Orbit: 390 x 580 km, 35.0° (Epoch: 17 June)

Event Time Altitude Azimuth Distance (km) Brightness Sun altitude
Exits shadow 09:13:03 18° 224° (SW) 1,040 2.1 -11.1°
Maximum altitude 09:14:18 22° 190° (S) 896 2.0 -10.9°
Drops below altitude 10° 09:16:54 10° 136° (SE) 1,433 3.6 -10.5°
Sets 09:19:18 0° 121° (ESE) 2,312 4.9 -10.1°
